Dillon, MT

8:38 PM MDT on June 23, 2017 (GMT -0600)
Dillon

Weather History for KDLN - May, 2013

Change the Weather History Date:

Wednesday, May 29, 2013

  Actual Average Record
Temperature  
Mean Temperature 53 °F 54 °F  
Max Temperature 64 °F 67 °F 87 °F (2003)
Min Temperature 41 °F 40 °F 23 °F (1982)
Degree Days  
Heating Degree Days 12    
Month to date heating degree days 357  
Since 1 July heating degree days 7452  
Cooling Degree Days 0    
Month to date cooling degree days 3  
Year to date cooling degree days 3  
Growing Degree Days 2 (Base 50)    
Moisture  
Dew Point 41 °F    
Average Humidity 65    
Maximum Humidity 96    
Minimum Humidity 34    
Precipitation  
Precipitation 0.52 in 0.08 in 0.64 in (1988)
Month to date precipitation 2.38 1.78  
Year to date precipitation 2.92 3.90  
Snow  
Snow 0.00 in - - ()
Snow Depth 0.00 in    
Sea Level Pressure  
Sea Level Pressure 29.70 in    
Wind  
Wind Speed 6 mph (South)    
Max Wind Speed 23 mph    
Max Gust Speed 26 mph    
Visibility 9 miles    
Events Rain , Thunderstorm    
T = Trace of Precipitation, MM = Missing Value Source: NWS Daily Summary

Daily Weather History Graph

Daily Weather History Graph

Search for Another Location

Airport or City:

Trip Planner

Search our weather history database for the weather conditions in past years. The results will help you decide how hot, cold, wet, or windy it might be!

Date:

Astronomy

May. 29, 2013 Rise Set
Actual Time 5:47 AM MDT 9:08 PM MDT
Civil Twilight 5:11 AM MDT 9:44 PM MDT
Nautical Twilight 4:23 AM MDT 10:32 PM MDT
Astronomical Twilight 3:24 AM MDT 11:32 PM MDT
Moon 12:26 AM MDT (5/29) 10:59 AM MDT (5/29)
Length of Visible Light 16h 33m
Length of Day
15h 21m
Waning Gibbous, 72% of the Moon is Illuminated
May 29
Waning Gibbous
May 31
Last Quarter
Jun 8
New
Jun 16
First Quarter
Jun 23
Full

Hourly Weather History & Observations

Time (MDT) Temp. Windchill Dew Point Humidity Pressure Visibility Wind Dir Wind Speed Gust Speed Precip Events Conditions
12:44 AM 46.4 °F 43.5 °F 42.8 °F 87% 29.82 in 10.0 mi East 5.8 mph - 0.01 in Rain Light Rain
12:53 AM 46.9 °F - 43.0 °F 86% 29.73 in 10.0 mi Calm Calm - 0.01 in Rain Light Rain
1:12 AM 46.4 °F - 42.8 °F 87% 29.82 in 9.0 mi Calm Calm - 0.01 in Rain Light Rain
1:53 AM 46.0 °F 44.8 °F 44.1 °F 93% 29.73 in 10.0 mi South 3.5 mph - 0.01 in   Overcast
2:53 AM 46.0 °F 42.5 °F 42.1 °F 86% 29.71 in 10.0 mi SE 6.9 mph - 0.01 in   Overcast
3:12 AM 46.4 °F 42.9 °F 42.8 °F 87% 29.79 in 10.0 mi SSE 6.9 mph - N/A   Mostly Cloudy
3:21 AM 44.6 °F 42.2 °F 42.8 °F 93% 29.79 in 10.0 mi SSE 4.6 mph - N/A   Scattered Clouds
3:53 AM 44.1 °F 40.8 °F 41.0 °F 89% 29.70 in 10.0 mi SW 5.8 mph - N/A   Clear
4:53 AM 42.1 °F 38.4 °F 41.0 °F 96% 29.70 in 10.0 mi SSW 5.8 mph - N/A   Partly Cloudy
5:53 AM 42.1 °F 39.2 °F 39.9 °F 92% 29.70 in 10.0 mi SSW 4.6 mph - N/A   Mostly Cloudy
6:53 AM 43.0 °F 41.3 °F 39.9 °F 89% 29.70 in 10.0 mi SSW 3.5 mph - N/A   Overcast
7:53 AM 46.0 °F - 42.1 °F 86% 29.69 in 10.0 mi Calm Calm - N/A   Mostly Cloudy
8:01 AM 46.4 °F 44.3 °F 42.8 °F 87% 29.76 in 10.0 mi SW 4.6 mph - N/A   Overcast
8:23 AM 48.2 °F - 42.8 °F 82% 29.76 in 10.0 mi SSW 3.5 mph - N/A   Overcast
8:53 AM 50.0 °F - 42.1 °F 74% 29.69 in 10.0 mi Calm Calm - N/A   Overcast
9:53 AM 50.0 °F - 42.1 °F 74% 29.68 in 10.0 mi SW 6.9 mph - N/A   Overcast
10:53 AM 52.0 °F - 39.0 °F 61% 29.67 in 10.0 mi Variable 4.6 mph - N/A   Overcast
11:53 AM 55.0 °F - 39.0 °F 55% 29.65 in 10.0 mi Calm Calm - N/A   Partly Cloudy
12:53 PM 57.9 °F - 37.9 °F 47% 29.62 in 10.0 mi Variable 3.5 mph - N/A   Partly Cloudy
1:53 PM 57.0 °F - 43.0 °F 59% 29.62 in 10.0 mi WNW 13.8 mph 18.4 mph N/A   Mostly Cloudy
2:53 PM 59.0 °F - 35.1 °F 41% 29.59 in 10.0 mi Calm Calm - N/A   Scattered Clouds
3:53 PM 60.1 °F - 37.9 °F 44% 29.58 in 10.0 mi West 4.6 mph - N/A   Clear
4:53 PM 62.1 °F - 36.0 °F 38% 29.57 in 10.0 mi Variable 3.5 mph - N/A   Partly Cloudy
5:53 PM 63.0 °F - 34.0 °F 34% 29.57 in 10.0 mi North 5.8 mph - N/A   Clear
6:53 PM 63.0 °F - 34.0 °F 34% 29.56 in 10.0 mi NNW 4.6 mph - N/A   Mostly Cloudy
7:39 PM 53.6 °F - 41.0 °F 62% 29.67 in 10.0 mi NNE 21.9 mph 25.3 mph N/A Thunderstorm Scattered Clouds
7:53 PM 54.0 °F - 41.0 °F 62% 29.61 in 10.0 mi North 11.5 mph - N/A Thunderstorm Thunderstorm
8:19 PM 44.6 °F 38.8 °F 39.2 °F 81% 29.73 in 2.0 mi SW 11.5 mph - 0.14 in Rain , Thunderstorm Heavy Thunderstorms and Rain
8:44 PM 46.4 °F 41.1 °F 41.0 °F 81% 29.74 in 4.0 mi South 11.5 mph 20.7 mph 0.35 in Rain , Thunderstorm Thunderstorms and Rain
8:53 PM 42.1 °F 34.5 °F 39.0 °F 89% 29.69 in 5.0 mi SE 15.0 mph - 0.38 in Rain Rain
9:00 PM 44.6 °F 38.1 °F 41.0 °F 87% 29.74 in 5.0 mi SSE 13.8 mph - 0.01 in Rain Light Rain
9:16 PM 44.6 °F 39.2 °F 41.0 °F 87% 29.75 in 8.0 mi SSE 10.4 mph - 0.03 in Rain , Thunderstorm Light Rain
9:31 PM 48.2 °F - 42.8 °F 82% 29.75 in 8.0 mi SW 10.4 mph - 0.04 in Rain Light Rain
9:53 PM 46.9 °F - 39.0 °F 74% 29.68 in 10.0 mi East 4.6 mph - 0.07 in Rain Light Rain
10:29 PM 46.4 °F 41.9 °F 42.8 °F 87% 29.79 in 9.0 mi NE 9.2 mph - 0.02 in Rain Light Rain
10:38 PM 46.4 °F 42.4 °F 42.8 °F 87% 29.79 in 10.0 mi NE 8.1 mph - 0.03 in Rain Light Rain
10:53 PM 46.9 °F - 43.0 °F 86% 29.72 in 10.0 mi NE 8.1 mph - 0.03 in Rain Light Rain
11:53 PM 45.0 °F 39.3 °F 41.0 °F 86% 29.73 in 10.0 mi ENE 11.5 mph - 0.01 in Rain Light Rain